PSTDB SBSI-SBUL

Flight info

Callsign PSTDB
Flight time 2h 16m
Altitude 19000
Route DCT DOSRO DCT MASVO DCT DODRI DCT
Aircraft TBM8/L-SDE3FGHIRWY/S

Departure

Time 2026-04-21 13:18
Airport Presidente João Batista Figueiredo Airport (SBSI)

Arrival

Time 2026-04-21 15:34
Airport Ten. Cel. Aviador César Bombonato Airport (SBUL)
Time Latitude Longitude Altitude Speed Heading
2026-04-21 13:17 -11.92140 -55.52502 4482 ft 168 kts 122°
2026-04-21 13:18 -11.92779 -55.51511 4863 ft 168 kts 118°
2026-04-21 13:18 -11.93401 -55.50494 5221 ft 169 kts 118°
2026-04-21 13:18 -11.94021 -55.49473 5608 ft 169 kts 117°
2026-04-21 13:18 -11.94640 -55.48447 5968 ft 170 kts 117°
2026-04-21 13:19 -11.95264 -55.47417 6321 ft 171 kts 117°
2026-04-21 13:19 -11.95887 -55.46382 6660 ft 171 kts 116°
2026-04-21 13:19 -11.96517 -55.45340 6995 ft 174 kts 117°
2026-04-21 13:19 -11.97156 -55.44282 7340 ft 175 kts 117°
2026-04-21 13:20 -11.97582 -55.43581 7559 ft 176 kts 117°
2026-04-21 13:20 -11.98445 -55.42149 8010 ft 178 kts 117°
2026-04-21 13:20 -11.99101 -55.41063 8353 ft 180 kts 118°
2026-04-21 13:20 -11.99760 -55.39964 8701 ft 182 kts 117°
2026-04-21 13:21 -12.00430 -55.38850 9035 ft 185 kts 118°
2026-04-21 13:21 -12.01102 -55.37747 9377 ft 186 kts 118°
2026-04-21 13:21 -12.01784 -55.36618 9732 ft 187 kts 118°
2026-04-21 13:21 -12.02469 -55.35483 10079 ft 189 kts 119°
2026-04-21 13:22 -12.03162 -55.34336 10407 ft 191 kts 119°
2026-04-21 13:22 -12.03860 -55.33179 10718 ft 192 kts 119°
2026-04-21 13:22 -12.04563 -55.32012 11036 ft 193 kts 120°
2026-04-21 13:22 -12.05272 -55.30838 11345 ft 195 kts 120°
2026-04-21 13:23 -12.05985 -55.29656 11662 ft 196 kts 120°
2026-04-21 13:23 -12.06702 -55.28466 11982 ft 197 kts 120°
2026-04-21 13:23 -12.07425 -55.27267 12281 ft 199 kts 121°
2026-04-21 13:23 -12.08153 -55.26062 12610 ft 200 kts 121°
2026-04-21 13:24 -12.08880 -55.24858 12902 ft 203 kts 121°
2026-04-21 13:24 -12.09621 -55.23626 13214 ft 204 kts 122°
2026-04-21 13:24 -12.10368 -55.22385 13520 ft 206 kts 122°
2026-04-21 13:24 -12.11122 -55.21134 13840 ft 208 kts 122°
2026-04-21 13:25 -12.11885 -55.19871 14114 ft 209 kts 122°
2026-04-21 13:25 -12.12648 -55.18604 14395 ft 210 kts 122°
2026-04-21 13:25 -12.13413 -55.17332 14676 ft 210 kts 122°
2026-04-21 13:25 -12.14181 -55.16057 14956 ft 211 kts 122°
2026-04-21 13:26 -12.14953 -55.14776 15237 ft 212 kts 122°
2026-04-21 13:26 -12.15727 -55.13490 15512 ft 213 kts 122°
2026-04-21 13:26 -12.16502 -55.12203 15793 ft 213 kts 122°
2026-04-21 13:26 -12.17279 -55.10912 16072 ft 214 kts 122°
2026-04-21 13:27 -12.18060 -55.09613 16348 ft 215 kts 122°
2026-04-21 13:27 -12.18844 -55.08310 16616 ft 216 kts 121°
2026-04-21 13:27 -12.19634 -55.06999 16880 ft 217 kts 122°
2026-04-21 13:27 -12.20424 -55.05687 17189 ft 217 kts 121°
2026-04-21 13:28 -12.21217 -55.04367 17457 ft 218 kts 122°
2026-04-21 13:28 -12.22010 -55.03048 17740 ft 218 kts 122°
2026-04-21 13:28 -12.22808 -55.01722 17991 ft 220 kts 121°
2026-04-21 13:28 -12.23609 -55.00389 18272 ft 220 kts 122°
2026-04-21 13:29 -12.24413 -54.99052 18518 ft 221 kts 122°
2026-04-21 13:29 -12.25221 -54.97707 18739 ft 222 kts 122°
2026-04-21 13:29 -12.26027 -54.96367 18996 ft 221 kts 122°
2026-04-21 13:29 -12.26567 -54.95468 19024 ft 228 kts 122°
2026-04-21 13:30 -12.27703 -54.93583 19033 ft 241 kts 122°
2026-04-21 13:30 -12.28596 -54.92096 19038 ft 249 kts 122°
2026-04-21 13:30 -12.29514 -54.90567 19038 ft 255 kts 122°
2026-04-21 13:30 -12.30147 -54.89513 19039 ft 259 kts 122°
2026-04-21 13:31 -12.31410 -54.87412 19037 ft 264 kts 122°
2026-04-21 13:31 -12.32062 -54.86318 19034 ft 269 kts 121°
2026-04-21 13:31 -12.33049 -54.84661 19036 ft 275 kts 122°
2026-04-21 13:31 -12.34051 -54.83002 19035 ft 280 kts 122°
2026-04-21 13:32 -12.35083 -54.81290 19034 ft 285 kts 122°
2026-04-21 13:32 -12.36125 -54.79553 19034 ft 288 kts 122°
2026-04-21 13:32 -12.37177 -54.77798 19035 ft 290 kts 122°
2026-04-21 13:32 -12.38238 -54.76030 19034 ft 293 kts 122°
2026-04-21 13:33 -12.39305 -54.74251 19031 ft 294 kts 122°
2026-04-21 13:33 -12.40376 -54.72465 19032 ft 295 kts 122°
2026-04-21 13:33 -12.41453 -54.70667 19031 ft 297 kts 122°
2026-04-21 13:33 -12.42533 -54.68866 19033 ft 297 kts 122°
2026-04-21 13:34 -12.43616 -54.67059 19031 ft 298 kts 122°
2026-04-21 13:34 -12.44701 -54.65247 19032 ft 299 kts 122°
2026-04-21 13:34 -12.45788 -54.63434 19030 ft 299 kts 122°
2026-04-21 13:34 -12.46876 -54.61617 19030 ft 299 kts 122°
2026-04-21 13:35 -12.47964 -54.59800 19028 ft 300 kts 122°
2026-04-21 13:35 -12.49053 -54.57982 19028 ft 300 kts 122°
2026-04-21 13:35 -12.50142 -54.56160 19029 ft 300 kts 122°
2026-04-21 13:35 -12.51216 -54.54364 19029 ft 300 kts 122°
2026-04-21 13:36 -12.52306 -54.52544 19025 ft 300 kts 122°
2026-04-21 13:36 -12.53396 -54.50722 19025 ft 300 kts 122°
2026-04-21 13:36 -12.54487 -54.48900 19025 ft 300 kts 122°
2026-04-21 13:36 -12.55577 -54.47073 19023 ft 300 kts 122°
2026-04-21 13:37 -12.56668 -54.45249 19026 ft 300 kts 122°
2026-04-21 13:37 -12.57757 -54.43427 19026 ft 300 kts 122°
2026-04-21 13:37 -12.58846 -54.41603 19024 ft 300 kts 121°
2026-04-21 13:37 -12.59937 -54.39777 19024 ft 300 kts 122°
2026-04-21 13:38 -12.61027 -54.37955 19021 ft 300 kts 121°
2026-04-21 13:38 -12.62115 -54.36131 19021 ft 300 kts 122°
2026-04-21 13:38 -12.63203 -54.34308 19021 ft 300 kts 121°
2026-04-21 13:38 -12.64439 -54.32634 19012 ft 299 kts 135°
2026-04-21 13:39 -12.66078 -54.31327 19002 ft 300 kts 149°
2026-04-21 13:39 -12.67983 -54.30481 19011 ft 300 kts 162°
2026-04-21 13:39 -12.69983 -54.29875 19014 ft 300 kts 162°
2026-04-21 13:39 -12.72004 -54.29243 19015 ft 299 kts 162°
2026-04-21 13:40 -12.73972 -54.28627 19016 ft 299 kts 162°
2026-04-21 13:40 -12.75968 -54.28009 19016 ft 299 kts 162°
2026-04-21 13:40 -12.77961 -54.27392 19016 ft 299 kts 162°
2026-04-21 13:40 -12.79955 -54.26772 19017 ft 300 kts 162°
2026-04-21 13:41 -12.81949 -54.26153 19016 ft 300 kts 162°
2026-04-21 13:41 -12.83945 -54.25533 19017 ft 299 kts 162°
2026-04-21 13:41 -12.85936 -54.24915 19018 ft 299 kts 162°
2026-04-21 13:41 -12.87932 -54.24292 19014 ft 299 kts 162°
2026-04-21 13:42 -12.89924 -54.23674 19017 ft 299 kts 162°
2026-04-21 13:42 -12.91918 -54.23056 19021 ft 299 kts 162°
2026-04-21 13:42 -12.93914 -54.22434 19019 ft 299 kts 162°
2026-04-21 13:42 -12.95904 -54.21816 19018 ft 299 kts 162°
2026-04-21 13:43 -12.97896 -54.21195 19016 ft 299 kts 162°
2026-04-21 13:43 -12.99886 -54.20577 19016 ft 298 kts 162°
2026-04-21 13:43 -13.01873 -54.19958 19016 ft 298 kts 162°
2026-04-21 13:43 -13.03838 -54.19346 19015 ft 298 kts 162°
2026-04-21 13:44 -13.05823 -54.18728 19016 ft 298 kts 162°
2026-04-21 13:44 -13.07809 -54.18110 19016 ft 298 kts 162°
2026-04-21 13:44 -13.09797 -54.17492 19013 ft 298 kts 162°
2026-04-21 13:44 -13.11781 -54.16874 19013 ft 298 kts 162°
2026-04-21 13:45 -13.13766 -54.16255 19015 ft 298 kts 162°
2026-04-21 13:45 -13.15750 -54.15637 19016 ft 298 kts 162°
2026-04-21 13:45 -13.17736 -54.15019 19015 ft 298 kts 162°
2026-04-21 13:45 -13.19722 -54.14399 19013 ft 298 kts 162°
2026-04-21 13:46 -13.21705 -54.13782 19014 ft 298 kts 162°
2026-04-21 13:46 -13.23688 -54.13163 19012 ft 298 kts 162°
2026-04-21 13:46 -13.25671 -54.12545 19018 ft 298 kts 162°
2026-04-21 13:46 -13.27654 -54.11925 19019 ft 298 kts 162°
2026-04-21 13:47 -13.29611 -54.11316 19017 ft 298 kts 162°
2026-04-21 13:47 -13.31598 -54.10696 19019 ft 298 kts 162°
2026-04-21 13:47 -13.33581 -54.10077 19018 ft 298 kts 162°
2026-04-21 13:47 -13.35568 -54.09458 19017 ft 298 kts 162°
2026-04-21 13:48 -13.37553 -54.08838 19022 ft 298 kts 162°
2026-04-21 13:48 -13.39540 -54.08218 19020 ft 298 kts 162°
2026-04-21 13:48 -13.41530 -54.07596 19020 ft 298 kts 162°
2026-04-21 13:48 -13.43512 -54.06977 19021 ft 298 kts 162°
2026-04-21 13:49 -13.45499 -54.06357 19020 ft 298 kts 162°
2026-04-21 13:49 -13.47483 -54.05738 19022 ft 298 kts 162°
2026-04-21 13:49 -13.49470 -54.05116 19020 ft 298 kts 162°
2026-04-21 13:49 -13.51432 -54.04503 19021 ft 298 kts 162°
2026-04-21 13:50 -13.53415 -54.03883 19019 ft 298 kts 162°
2026-04-21 13:50 -13.55401 -54.03262 19018 ft 298 kts 162°
2026-04-21 13:50 -13.57386 -54.02642 19017 ft 298 kts 162°
2026-04-21 13:50 -13.59377 -54.02019 19017 ft 298 kts 162°
2026-04-21 13:51 -13.61358 -54.01400 19017 ft 298 kts 162°
2026-04-21 13:51 -13.63340 -54.00780 19019 ft 297 kts 162°
2026-04-21 13:51 -13.65321 -54.00159 19019 ft 298 kts 162°
2026-04-21 13:51 -13.67280 -53.99546 19017 ft 298 kts 162°
2026-04-21 13:52 -13.69264 -53.98926 19018 ft 298 kts 162°
2026-04-21 13:52 -13.71244 -53.98306 19018 ft 297 kts 162°
2026-04-21 13:52 -13.73227 -53.97685 19019 ft 298 kts 162°
2026-04-21 13:52 -13.75206 -53.97064 19017 ft 297 kts 162°
2026-04-21 13:53 -13.77184 -53.96446 19022 ft 297 kts 162°
2026-04-21 13:53 -13.79160 -53.95828 19020 ft 297 kts 162°
2026-04-21 13:53 -13.81136 -53.95208 19020 ft 297 kts 162°
2026-04-21 13:53 -13.83110 -53.94590 19020 ft 297 kts 162°
2026-04-21 13:54 -13.85084 -53.93971 19020 ft 296 kts 162°
2026-04-21 13:54 -13.87057 -53.93351 19019 ft 296 kts 162°
2026-04-21 13:54 -13.89028 -53.92733 19019 ft 296 kts 162°
2026-04-21 13:54 -13.91002 -53.92115 19019 ft 296 kts 162°
2026-04-21 13:55 -13.92977 -53.91496 19018 ft 296 kts 162°
2026-04-21 13:55 -13.94948 -53.90877 19017 ft 296 kts 162°
2026-04-21 13:55 -13.96922 -53.90258 19019 ft 296 kts 162°
2026-04-21 13:55 -13.98894 -53.89638 19017 ft 296 kts 162°
2026-04-21 13:56 -14.00866 -53.89020 19018 ft 296 kts 162°
2026-04-21 13:56 -14.02842 -53.88400 19018 ft 297 kts 162°
2026-04-21 13:56 -14.04792 -53.87788 19020 ft 297 kts 162°
2026-04-21 13:56 -14.06766 -53.87167 19022 ft 297 kts 162°
2026-04-21 13:57 -14.08744 -53.86546 19022 ft 297 kts 162°
2026-04-21 13:57 -14.10725 -53.85924 19021 ft 297 kts 162°
2026-04-21 13:57 -14.12701 -53.85303 19021 ft 297 kts 162°
2026-04-21 13:57 -14.14677 -53.84683 19020 ft 297 kts 162°
2026-04-21 13:58 -14.16654 -53.84061 19021 ft 297 kts 162°
2026-04-21 13:58 -14.18631 -53.83438 19019 ft 297 kts 162°
2026-04-21 13:58 -14.20610 -53.82816 19015 ft 297 kts 162°
2026-04-21 13:58 -14.22584 -53.82197 19018 ft 297 kts 162°
2026-04-21 13:59 -14.24565 -53.81574 19020 ft 297 kts 162°
2026-04-21 13:59 -14.26536 -53.80953 19020 ft 297 kts 162°
2026-04-21 13:59 -14.28492 -53.80338 19016 ft 297 kts 162°
2026-04-21 13:59 -14.30469 -53.79715 19020 ft 297 kts 162°
2026-04-21 14:00 -14.32450 -53.79091 19020 ft 297 kts 162°
2026-04-21 14:00 -14.34427 -53.78469 19020 ft 297 kts 162°
2026-04-21 14:00 -14.36405 -53.77847 19023 ft 297 kts 162°
2026-04-21 14:00 -14.38384 -53.77224 19022 ft 297 kts 162°
2026-04-21 14:01 -14.40365 -53.76599 19019 ft 297 kts 162°
2026-04-21 14:01 -14.42344 -53.75975 19017 ft 297 kts 162°
2026-04-21 14:01 -14.44325 -53.75350 19020 ft 297 kts 162°
2026-04-21 14:01 -14.46303 -53.74728 19020 ft 298 kts 162°
2026-04-21 14:02 -14.48282 -53.74103 19023 ft 298 kts 162°
2026-04-21 14:02 -14.50264 -53.73479 19021 ft 298 kts 162°
2026-04-21 14:02 -14.52245 -53.72854 19021 ft 297 kts 162°
2026-04-21 14:03 -14.56202 -53.71607 19023 ft 297 kts 162°
2026-04-21 14:03 -14.58183 -53.70981 19022 ft 298 kts 162°
2026-04-21 14:03 -14.60139 -53.70364 19022 ft 297 kts 162°
2026-04-21 14:03 -14.62122 -53.69738 19016 ft 297 kts 162°
2026-04-21 14:04 -14.64102 -53.69113 19020 ft 297 kts 162°
2026-04-21 14:04 -14.66081 -53.68488 19020 ft 297 kts 162°
2026-04-21 14:04 -14.68054 -53.67865 19021 ft 297 kts 162°
2026-04-21 14:04 -14.70031 -53.67240 19024 ft 297 kts 162°
2026-04-21 14:05 -14.72005 -53.66619 19023 ft 297 kts 162°
2026-04-21 14:05 -14.73979 -53.65993 19023 ft 297 kts 162°
2026-04-21 14:05 -14.75954 -53.65366 19017 ft 297 kts 162°
2026-04-21 14:05 -14.77929 -53.64743 19022 ft 297 kts 163°
2026-04-21 14:06 -14.79904 -53.64120 19014 ft 297 kts 162°
2026-04-21 14:06 -14.81858 -53.63502 19019 ft 297 kts 162°
2026-04-21 14:06 -14.83831 -53.62876 19022 ft 297 kts 162°
2026-04-21 14:06 -14.85809 -53.62251 19020 ft 297 kts 162°
2026-04-21 14:07 -14.87784 -53.61626 19024 ft 297 kts 162°
2026-04-21 14:07 -14.89767 -53.60999 19019 ft 298 kts 162°
2026-04-21 14:07 -14.91747 -53.60371 19021 ft 298 kts 162°
2026-04-21 14:07 -14.93730 -53.59743 19022 ft 298 kts 162°
2026-04-21 14:08 -14.95710 -53.59117 19023 ft 297 kts 162°
2026-04-21 14:08 -14.97689 -53.58490 19020 ft 297 kts 162°
2026-04-21 14:08 -14.99667 -53.57864 19016 ft 297 kts 162°
2026-04-21 14:08 -15.01642 -53.57237 19021 ft 297 kts 162°
2026-04-21 14:09 -15.03621 -53.56609 19019 ft 297 kts 163°
2026-04-21 14:09 -15.05598 -53.55984 19016 ft 297 kts 163°
2026-04-21 14:09 -15.07552 -53.55364 19019 ft 297 kts 163°
2026-04-21 14:09 -15.09527 -53.54737 19017 ft 297 kts 163°
2026-04-21 14:10 -15.11505 -53.54110 19013 ft 297 kts 163°
2026-04-21 14:10 -15.13482 -53.53483 19010 ft 297 kts 163°
2026-04-21 14:10 -15.15459 -53.52856 19017 ft 297 kts 163°
2026-04-21 14:10 -15.17431 -53.52229 19012 ft 297 kts 163°
2026-04-21 14:11 -15.19404 -53.51603 19017 ft 297 kts 163°
2026-04-21 14:11 -15.21379 -53.50976 19014 ft 297 kts 163°
2026-04-21 14:11 -15.23352 -53.50350 19017 ft 297 kts 163°
2026-04-21 14:11 -15.25328 -53.49723 19017 ft 297 kts 163°
2026-04-21 14:12 -15.27299 -53.49096 19018 ft 297 kts 163°
2026-04-21 14:12 -15.29275 -53.48468 19018 ft 297 kts 163°
2026-04-21 14:12 -15.31226 -53.47849 19017 ft 297 kts 163°
2026-04-21 14:12 -15.33200 -53.47220 19019 ft 297 kts 163°
2026-04-21 14:13 -15.35181 -53.46591 19017 ft 297 kts 163°
2026-04-21 14:13 -15.37158 -53.45962 19013 ft 297 kts 163°
2026-04-21 14:13 -15.39132 -53.45334 19018 ft 297 kts 163°
2026-04-21 14:13 -15.41107 -53.44706 19006 ft 297 kts 163°
2026-04-21 14:14 -15.43083 -53.44078 19008 ft 297 kts 163°
2026-04-21 14:14 -15.45060 -53.43448 19004 ft 297 kts 163°
2026-04-21 14:14 -15.47033 -53.42820 19009 ft 296 kts 163°
2026-04-21 14:14 -15.49008 -53.42191 19009 ft 296 kts 163°
2026-04-21 14:15 -15.50976 -53.41565 19010 ft 296 kts 163°
2026-04-21 14:15 -15.52948 -53.40937 19009 ft 296 kts 163°
2026-04-21 14:15 -15.54917 -53.40308 19007 ft 296 kts 163°
2026-04-21 14:15 -15.56889 -53.39681 19006 ft 296 kts 163°
2026-04-21 14:16 -15.58861 -53.39052 19010 ft 296 kts 163°
2026-04-21 14:16 -15.60829 -53.38425 19009 ft 296 kts 163°
2026-04-21 14:16 -15.62798 -53.37798 19010 ft 296 kts 163°
2026-04-21 14:16 -15.64741 -53.37178 19009 ft 296 kts 163°
2026-04-21 14:17 -15.66708 -53.36551 19010 ft 296 kts 163°
2026-04-21 14:17 -15.68674 -53.35924 19010 ft 295 kts 163°
2026-04-21 14:17 -15.70638 -53.35297 19010 ft 295 kts 163°
2026-04-21 14:17 -15.72603 -53.34670 19008 ft 296 kts 163°
2026-04-21 14:18 -15.74573 -53.34041 19007 ft 296 kts 163°
2026-04-21 14:18 -15.76539 -53.33413 19007 ft 296 kts 163°
2026-04-21 14:18 -15.78505 -53.32785 19007 ft 296 kts 163°
2026-04-21 14:18 -15.80413 -53.31989 19007 ft 297 kts 150°
2026-04-21 14:19 -15.82053 -53.30695 19013 ft 297 kts 136°
2026-04-21 14:19 -15.83448 -53.29111 19016 ft 297 kts 133°
2026-04-21 14:19 -15.84847 -53.27531 19018 ft 297 kts 134°
2026-04-21 14:19 -15.86250 -53.25955 19016 ft 297 kts 133°
2026-04-21 14:20 -15.87172 -53.24907 19017 ft 297 kts 134°
2026-04-21 14:20 -15.88564 -53.23323 19017 ft 297 kts 133°
2026-04-21 14:20 -15.90409 -53.21227 19017 ft 297 kts 134°
2026-04-21 14:20 -15.91803 -53.19647 19018 ft 297 kts 134°
2026-04-21 14:21 -15.93198 -53.18063 19018 ft 297 kts 133°
2026-04-21 14:21 -15.94595 -53.16477 19019 ft 297 kts 134°
2026-04-21 14:21 -15.95991 -53.14892 19019 ft 297 kts 134°
2026-04-21 14:21 -15.97387 -53.13306 19020 ft 298 kts 133°
2026-04-21 14:22 -15.98316 -53.12250 19020 ft 298 kts 133°
2026-04-21 14:22 -15.99721 -53.10656 19020 ft 298 kts 134°
2026-04-21 14:22 -16.01120 -53.09065 19018 ft 298 kts 133°
2026-04-21 14:22 -16.02521 -53.07472 19018 ft 298 kts 134°
2026-04-21 14:23 -16.03919 -53.05884 19019 ft 298 kts 134°
2026-04-21 14:23 -16.05318 -53.04292 19019 ft 298 kts 133°
2026-04-21 14:23 -16.06717 -53.02702 19017 ft 298 kts 133°
2026-04-21 14:23 -16.08117 -53.01108 19018 ft 299 kts 133°
2026-04-21 14:24 -16.09517 -52.99513 19020 ft 299 kts 133°
2026-04-21 14:24 -16.10921 -52.97915 19022 ft 299 kts 133°
2026-04-21 14:24 -16.12323 -52.96320 19023 ft 299 kts 133°
2026-04-21 14:24 -16.13730 -52.94718 19017 ft 299 kts 133°
2026-04-21 14:25 -16.15133 -52.93119 19019 ft 299 kts 133°
2026-04-21 14:25 -16.16535 -52.91521 19019 ft 299 kts 133°
2026-04-21 14:25 -16.17937 -52.89922 19017 ft 299 kts 134°
2026-04-21 14:25 -16.19320 -52.88348 19019 ft 299 kts 133°
2026-04-21 14:26 -16.20722 -52.86752 19018 ft 299 kts 133°
2026-04-21 14:26 -16.22123 -52.85152 19014 ft 299 kts 133°
2026-04-21 14:26 -16.23522 -52.83555 19019 ft 299 kts 133°
2026-04-21 14:26 -16.24923 -52.81956 19019 ft 299 kts 133°
2026-04-21 14:27 -16.26323 -52.80359 19020 ft 299 kts 133°
2026-04-21 14:27 -16.27726 -52.78759 19022 ft 299 kts 133°
2026-04-21 14:27 -16.29128 -52.77158 19021 ft 299 kts 133°
2026-04-21 14:27 -16.30530 -52.75556 19017 ft 299 kts 133°
2026-04-21 14:28 -16.31930 -52.73959 19017 ft 299 kts 133°
2026-04-21 14:28 -16.33332 -52.72356 19022 ft 299 kts 133°
2026-04-21 14:28 -16.34730 -52.70758 19021 ft 298 kts 133°
2026-04-21 14:28 -16.36129 -52.69159 19022 ft 298 kts 133°
2026-04-21 14:29 -16.37529 -52.67559 19022 ft 298 kts 133°
2026-04-21 14:29 -16.38927 -52.65959 19018 ft 298 kts 133°
2026-04-21 14:29 -16.40326 -52.64358 19019 ft 298 kts 133°
2026-04-21 14:29 -16.41705 -52.62783 19021 ft 298 kts 133°
2026-04-21 14:30 -16.43103 -52.61184 19021 ft 298 kts 133°
2026-04-21 14:30 -16.44498 -52.59585 19021 ft 298 kts 133°
2026-04-21 14:30 -16.45891 -52.57990 19020 ft 298 kts 133°
2026-04-21 14:30 -16.47285 -52.56395 19021 ft 298 kts 133°
2026-04-21 14:31 -16.48681 -52.54796 19019 ft 298 kts 133°
2026-04-21 14:31 -16.50072 -52.53202 19020 ft 297 kts 133°
2026-04-21 14:31 -16.51465 -52.51607 19024 ft 298 kts 133°
2026-04-21 14:31 -16.52859 -52.50010 19023 ft 297 kts 133°
2026-04-21 14:32 -16.54247 -52.48417 19022 ft 297 kts 133°
2026-04-21 14:32 -16.55637 -52.46819 19021 ft 297 kts 133°
2026-04-21 14:32 -16.57031 -52.45224 19021 ft 298 kts 133°
2026-04-21 14:32 -16.58425 -52.43627 19020 ft 298 kts 133°
2026-04-21 14:33 -16.59815 -52.42030 19026 ft 298 kts 133°
2026-04-21 14:33 -16.61209 -52.40430 19026 ft 298 kts 133°
2026-04-21 14:33 -16.62599 -52.38835 19026 ft 297 kts 133°
2026-04-21 14:33 -16.63993 -52.37236 19029 ft 297 kts 133°
2026-04-21 14:34 -16.65381 -52.35640 19028 ft 297 kts 133°
2026-04-21 14:34 -16.66767 -52.34046 19028 ft 297 kts 133°
2026-04-21 14:34 -16.68144 -52.32465 19027 ft 297 kts 133°
2026-04-21 14:34 -16.69530 -52.30873 19028 ft 297 kts 133°
2026-04-21 14:35 -16.70919 -52.29275 19026 ft 297 kts 133°
2026-04-21 14:35 -16.72307 -52.27678 19030 ft 297 kts 133°
2026-04-21 14:35 -16.73694 -52.26083 19027 ft 296 kts 133°
2026-04-21 14:35 -16.75081 -52.24491 19028 ft 297 kts 133°
2026-04-21 14:36 -16.76464 -52.22895 19026 ft 297 kts 133°
2026-04-21 14:36 -16.77852 -52.21299 19026 ft 296 kts 134°
2026-04-21 14:36 -16.79239 -52.19703 19027 ft 297 kts 133°
2026-04-21 14:36 -16.80626 -52.18106 19031 ft 297 kts 133°
2026-04-21 14:37 -16.82014 -52.16507 19033 ft 297 kts 133°
2026-04-21 14:37 -16.83402 -52.14907 19031 ft 297 kts 133°
2026-04-21 14:37 -16.84791 -52.13309 19032 ft 297 kts 133°
2026-04-21 14:37 -16.86164 -52.11727 19031 ft 297 kts 133°
2026-04-21 14:38 -16.87550 -52.10128 19031 ft 297 kts 133°
2026-04-21 14:38 -16.88937 -52.08528 19030 ft 297 kts 133°
2026-04-21 14:38 -16.90326 -52.06926 19032 ft 297 kts 133°
2026-04-21 14:38 -16.91711 -52.05329 19031 ft 297 kts 133°
2026-04-21 14:39 -16.93097 -52.03730 19030 ft 296 kts 134°
2026-04-21 14:39 -16.94482 -52.02131 19030 ft 297 kts 133°
2026-04-21 14:39 -16.95867 -52.00531 19032 ft 297 kts 134°
2026-04-21 14:39 -16.97254 -51.98928 19034 ft 297 kts 133°
2026-04-21 14:40 -16.98641 -51.97327 19036 ft 297 kts 134°
2026-04-21 14:40 -17.00029 -51.95725 19036 ft 297 kts 134°
2026-04-21 14:40 -17.01418 -51.94120 19036 ft 298 kts 133°
2026-04-21 14:40 -17.02805 -51.92515 19035 ft 298 kts 133°
2026-04-21 14:41 -17.04194 -51.90910 19041 ft 298 kts 134°
2026-04-21 14:41 -17.05565 -51.89323 19041 ft 297 kts 133°
2026-04-21 14:41 -17.06956 -51.87715 19040 ft 298 kts 134°
2026-04-21 14:41 -17.08350 -51.86106 19041 ft 298 kts 133°
2026-04-21 14:42 -17.09736 -51.84499 19036 ft 298 kts 134°
2026-04-21 14:42 -17.11125 -51.82893 19036 ft 298 kts 133°
2026-04-21 14:42 -17.12511 -51.81284 19043 ft 298 kts 133°
2026-04-21 14:42 -17.13899 -51.79677 19043 ft 298 kts 134°
2026-04-21 14:43 -17.15290 -51.78069 19045 ft 298 kts 133°
2026-04-21 14:43 -17.16678 -51.76461 19045 ft 298 kts 133°
2026-04-21 14:43 -17.18048 -51.74871 19045 ft 298 kts 134°
2026-04-21 14:43 -17.19441 -51.73258 19043 ft 298 kts 134°
2026-04-21 14:44 -17.20832 -51.71646 19039 ft 298 kts 134°
2026-04-21 14:44 -17.22217 -51.70037 19043 ft 298 kts 133°
2026-04-21 14:44 -17.23608 -51.68424 19043 ft 298 kts 134°
2026-04-21 14:44 -17.24994 -51.66817 19043 ft 297 kts 134°
2026-04-21 14:45 -17.26378 -51.65210 19040 ft 297 kts 133°
2026-04-21 14:45 -17.27761 -51.63604 19041 ft 297 kts 134°
2026-04-21 14:45 -17.29143 -51.62000 19040 ft 297 kts 134°
2026-04-21 14:45 -17.30525 -51.60396 19042 ft 297 kts 133°
2026-04-21 14:46 -17.31907 -51.58789 19046 ft 297 kts 134°
2026-04-21 14:46 -17.33291 -51.57179 19048 ft 297 kts 134°
2026-04-21 14:46 -17.34675 -51.55572 19048 ft 297 kts 134°
2026-04-21 14:46 -17.36059 -51.53963 19049 ft 297 kts 134°
2026-04-21 14:47 -17.37442 -51.52355 19043 ft 297 kts 134°
2026-04-21 14:47 -17.38828 -51.50743 19046 ft 297 kts 134°
2026-04-21 14:47 -17.40194 -51.49152 19040 ft 298 kts 133°
2026-04-21 14:47 -17.41580 -51.47541 19039 ft 298 kts 134°
2026-04-21 14:48 -17.42964 -51.45930 19037 ft 297 kts 134°
2026-04-21 14:48 -17.44348 -51.44318 19034 ft 297 kts 133°
2026-04-21 14:48 -17.45730 -51.42708 19030 ft 297 kts 134°
2026-04-21 14:48 -17.47117 -51.41093 19038 ft 297 kts 133°
2026-04-21 14:49 -17.48497 -51.39484 19039 ft 297 kts 134°
2026-04-21 14:49 -17.49876 -51.37877 19039 ft 297 kts 133°
2026-04-21 14:49 -17.51260 -51.36264 19039 ft 297 kts 134°
2026-04-21 14:49 -17.52640 -51.34655 19032 ft 297 kts 133°
2026-04-21 14:50 -17.53556 -51.33587 19038 ft 297 kts 133°
2026-04-21 14:50 -17.55385 -51.31453 19037 ft 297 kts 134°
2026-04-21 14:50 -17.56763 -51.29844 19039 ft 297 kts 134°
2026-04-21 14:50 -17.58145 -51.28233 19040 ft 297 kts 134°
2026-04-21 14:51 -17.59528 -51.26619 19032 ft 297 kts 134°
2026-04-21 14:51 -17.60908 -51.25007 19036 ft 297 kts 134°
2026-04-21 14:51 -17.62288 -51.23394 19035 ft 297 kts 134°
2026-04-21 14:51 -17.63667 -51.21783 19030 ft 297 kts 134°
2026-04-21 14:52 -17.65045 -51.20174 19035 ft 297 kts 134°
2026-04-21 14:52 -17.66424 -51.18560 19038 ft 297 kts 133°
2026-04-21 14:52 -17.67801 -51.16950 19038 ft 296 kts 134°
2026-04-21 14:52 -17.69178 -51.15341 19037 ft 296 kts 134°
2026-04-21 14:53 -17.70557 -51.13730 19034 ft 296 kts 134°
2026-04-21 14:53 -17.71935 -51.12115 19038 ft 297 kts 134°
2026-04-21 14:53 -17.73311 -51.10501 19035 ft 297 kts 134°
2026-04-21 14:53 -17.74694 -51.08887 19039 ft 297 kts 134°
2026-04-21 14:54 -17.76073 -51.07273 19037 ft 297 kts 133°
2026-04-21 14:54 -17.77434 -51.05677 19033 ft 297 kts 133°
2026-04-21 14:54 -17.78829 -51.04042 19034 ft 297 kts 134°
2026-04-21 14:54 -17.80189 -51.02450 19033 ft 297 kts 134°
2026-04-21 14:55 -17.81567 -51.00835 19034 ft 297 kts 133°
2026-04-21 14:55 -17.82944 -50.99219 19031 ft 297 kts 133°
2026-04-21 14:55 -17.84325 -50.97599 19032 ft 297 kts 133°
2026-04-21 14:55 -17.85704 -50.95984 19030 ft 297 kts 133°
2026-04-21 14:56 -17.87083 -50.94365 19031 ft 297 kts 133°
2026-04-21 14:56 -17.88248 -50.92569 19026 ft 300 kts 118°
2026-04-21 14:56 -17.89142 -50.90589 19033 ft 300 kts 118°
2026-04-21 14:56 -17.90078 -50.88625 19038 ft 300 kts 118°
2026-04-21 14:57 -17.91012 -50.86664 19033 ft 300 kts 118°
2026-04-21 14:57 -17.91927 -50.84695 19035 ft 300 kts 118°
2026-04-21 14:57 -17.92844 -50.82724 19035 ft 300 kts 118°
2026-04-21 14:57 -17.93768 -50.80754 19034 ft 300 kts 118°
2026-04-21 14:58 -17.94692 -50.78784 19035 ft 300 kts 118°
2026-04-21 14:58 -17.95611 -50.76818 19031 ft 300 kts 118°
2026-04-21 14:58 -17.96517 -50.74875 19035 ft 300 kts 118°
2026-04-21 14:58 -17.97437 -50.72907 19036 ft 300 kts 118°
2026-04-21 14:59 -17.98371 -50.70912 19035 ft 300 kts 118°
2026-04-21 14:59 -17.99280 -50.68962 19032 ft 300 kts 118°
2026-04-21 14:59 -18.00199 -50.66991 19035 ft 300 kts 118°
2026-04-21 14:59 -18.01119 -50.65021 19028 ft 300 kts 118°
2026-04-21 15:00 -18.02040 -50.63048 19025 ft 300 kts 118°
2026-04-21 15:00 -18.02961 -50.61073 19033 ft 301 kts 118°
2026-04-21 15:00 -18.03880 -50.59102 19029 ft 301 kts 118°
2026-04-21 15:00 -18.04801 -50.57129 19029 ft 301 kts 118°
2026-04-21 15:01 -18.05720 -50.55155 19026 ft 301 kts 118°
2026-04-21 15:01 -18.06639 -50.53180 19022 ft 301 kts 118°
2026-04-21 15:01 -18.07559 -50.51206 19021 ft 301 kts 118°
2026-04-21 15:01 -18.08478 -50.49232 19019 ft 301 kts 118°
2026-04-21 15:02 -18.09386 -50.47280 19017 ft 300 kts 118°
2026-04-21 15:02 -18.10305 -50.45304 19017 ft 301 kts 118°
2026-04-21 15:02 -18.11223 -50.43331 19021 ft 300 kts 118°
2026-04-21 15:02 -18.12142 -50.41354 19026 ft 301 kts 118°
2026-04-21 15:03 -18.13059 -50.39381 19020 ft 301 kts 118°
2026-04-21 15:03 -18.13978 -50.37403 19021 ft 301 kts 118°
2026-04-21 15:03 -18.14897 -50.35426 19019 ft 301 kts 118°
2026-04-21 15:03 -18.15816 -50.33446 19025 ft 301 kts 118°
2026-04-21 15:04 -18.16733 -50.31467 19016 ft 301 kts 118°
2026-04-21 15:04 -18.17638 -50.29516 19019 ft 301 kts 118°
2026-04-21 15:04 -18.18556 -50.27539 19019 ft 301 kts 118°
2026-04-21 15:04 -18.19475 -50.25559 19016 ft 301 kts 118°
2026-04-21 15:05 -18.20391 -50.23578 19012 ft 301 kts 118°
2026-04-21 15:05 -18.22227 -50.19621 19010 ft 301 kts 118°
2026-04-21 15:05 -18.23143 -50.17640 19019 ft 301 kts 118°
2026-04-21 15:06 -18.24060 -50.15659 19015 ft 301 kts 118°
2026-04-21 15:06 -18.24976 -50.13679 19007 ft 301 kts 118°
2026-04-21 15:06 -18.25892 -50.11700 19012 ft 301 kts 118°
2026-04-21 15:06 -18.26808 -50.09720 19012 ft 301 kts 118°
2026-04-21 15:07 -18.27722 -50.07741 19010 ft 301 kts 118°
2026-04-21 15:07 -18.28640 -50.05756 19012 ft 301 kts 118°
2026-04-21 15:07 -18.29556 -50.03773 19007 ft 301 kts 118°
2026-04-21 15:07 -18.30471 -50.01793 19011 ft 301 kts 118°
2026-04-21 15:08 -18.31374 -49.99836 19011 ft 301 kts 118°
2026-04-21 15:08 -18.32290 -49.97851 19014 ft 301 kts 118°
2026-04-21 15:08 -18.33205 -49.95868 19010 ft 301 kts 118°
2026-04-21 15:08 -18.34119 -49.93888 19014 ft 301 kts 117°
2026-04-21 15:09 -18.35030 -49.91909 19005 ft 301 kts 118°
2026-04-21 15:09 -18.35944 -49.89928 19009 ft 301 kts 118°
2026-04-21 15:09 -18.36860 -49.87942 19008 ft 301 kts 118°
2026-04-21 15:09 -18.37771 -49.85961 19009 ft 301 kts 118°
2026-04-21 15:10 -18.38685 -49.83979 19006 ft 301 kts 118°
2026-04-21 15:10 -18.39289 -49.82665 19007 ft 301 kts 118°
2026-04-21 15:10 -18.40497 -49.80041 19003 ft 301 kts 118°
2026-04-21 15:10 -18.41410 -49.78056 19007 ft 301 kts 118°
2026-04-21 15:11 -18.42027 -49.76714 19007 ft 301 kts 118°
2026-04-21 15:11 -18.42939 -49.74732 19009 ft 301 kts 118°
2026-04-21 15:11 -18.44146 -49.72105 19004 ft 301 kts 117°
2026-04-21 15:11 -18.44749 -49.70793 19007 ft 301 kts 117°
2026-04-21 15:12 -18.45659 -49.68812 19005 ft 301 kts 117°
2026-04-21 15:12 -18.46572 -49.66823 19006 ft 301 kts 117°
2026-04-21 15:12 -18.47483 -49.64839 19006 ft 301 kts 117°
2026-04-21 15:12 -18.48394 -49.62855 19009 ft 301 kts 117°
2026-04-21 15:13 -18.49305 -49.60867 19008 ft 301 kts 117°
2026-04-21 15:13 -18.50216 -49.58879 19003 ft 301 kts 117°
2026-04-21 15:13 -18.51128 -49.56891 19005 ft 301 kts 117°
2026-04-21 15:13 -18.52040 -49.54901 19006 ft 301 kts 117°
2026-04-21 15:14 -18.52950 -49.52915 19001 ft 301 kts 117°
2026-04-21 15:14 -18.53861 -49.50924 19004 ft 301 kts 117°
2026-04-21 15:14 -18.54772 -49.48935 19003 ft 301 kts 117°
2026-04-21 15:14 -18.55671 -49.46972 19001 ft 301 kts 117°
2026-04-21 15:15 -18.56580 -49.44984 19009 ft 302 kts 117°
2026-04-21 15:15 -18.57491 -49.42992 19010 ft 302 kts 117°
2026-04-21 15:15 -18.58403 -49.40999 19012 ft 302 kts 117°
2026-04-21 15:15 -18.59312 -49.39008 19012 ft 302 kts 117°
2026-04-21 15:16 -18.60224 -49.37014 19011 ft 302 kts 117°
2026-04-21 15:16 -18.61133 -49.35022 19009 ft 302 kts 117°
2026-04-21 15:16 -18.62042 -49.33029 19012 ft 301 kts 117°
2026-04-21 15:16 -18.62952 -49.31039 19010 ft 301 kts 117°
2026-04-21 15:17 -18.63860 -49.29048 19011 ft 301 kts 118°
2026-04-21 15:17 -18.64766 -49.27059 19012 ft 301 kts 118°
2026-04-21 15:17 -18.65673 -49.25071 19012 ft 301 kts 117°
2026-04-21 15:17 -18.66579 -49.23086 19013 ft 301 kts 117°
2026-04-21 15:18 -18.67484 -49.21095 19015 ft 301 kts 118°
2026-04-21 15:18 -18.68391 -49.19104 19010 ft 301 kts 117°
2026-04-21 15:18 -18.69301 -49.17114 19015 ft 301 kts 117°
2026-04-21 15:18 -18.70207 -49.15121 19014 ft 302 kts 117°
2026-04-21 15:19 -18.71114 -49.13123 19010 ft 302 kts 117°
2026-04-21 15:19 -18.72013 -49.11147 19009 ft 302 kts 117°
2026-04-21 15:19 -18.72921 -49.09149 19009 ft 302 kts 117°
2026-04-21 15:19 -18.73829 -49.07151 19013 ft 302 kts 117°
2026-04-21 15:20 -18.74740 -49.05150 19016 ft 302 kts 118°
2026-04-21 15:20 -18.75650 -49.03147 18864 ft 307 kts 117°
2026-04-21 15:20 -18.76583 -49.01100 18534 ft 312 kts 117°
2026-04-21 15:20 -18.77528 -48.99029 18194 ft 314 kts 117°
2026-04-21 15:21 -18.78470 -48.96943 17809 ft 315 kts 117°
2026-04-21 15:21 -18.79411 -48.94860 17429 ft 314 kts 117°
2026-04-21 15:21 -18.80358 -48.92780 17054 ft 313 kts 118°
2026-04-21 15:21 -18.81295 -48.90712 16689 ft 311 kts 117°
2026-04-21 15:22 -18.82225 -48.88656 16319 ft 310 kts 117°
2026-04-21 15:22 -18.83151 -48.86613 15963 ft 308 kts 116°
2026-04-21 15:22 -18.84074 -48.84583 15609 ft 305 kts 117°
2026-04-21 15:22 -18.84987 -48.82563 15256 ft 303 kts 116°
2026-04-21 15:23 -18.85889 -48.80560 14908 ft 301 kts 116°
2026-04-21 15:23 -18.86780 -48.78596 14569 ft 299 kts 116°
2026-04-21 15:23 -18.87676 -48.76618 14229 ft 298 kts 116°
2026-04-21 15:23 -18.88565 -48.74648 13887 ft 296 kts 115°
2026-04-21 15:24 -18.89445 -48.72698 13515 ft 293 kts 115°
2026-04-21 15:24 -18.90322 -48.70757 13133 ft 291 kts 115°
2026-04-21 15:24 -18.91194 -48.68834 12759 ft 290 kts 115°
2026-04-21 15:24 -18.92059 -48.66914 12381 ft 289 kts 115°
2026-04-21 15:25 -18.92922 -48.64995 12011 ft 288 kts 115°
2026-04-21 15:25 -18.93785 -48.63091 11648 ft 287 kts 115°
2026-04-21 15:25 -18.94642 -48.61190 11289 ft 286 kts 115°
2026-04-21 15:25 -18.95496 -48.59287 10932 ft 286 kts 115°
2026-04-21 15:26 -18.96348 -48.57397 10591 ft 285 kts 115°
2026-04-21 15:26 -18.97202 -48.55510 10255 ft 284 kts 115°
2026-04-21 15:26 -18.98038 -48.53650 9919 ft 284 kts 114°
2026-04-21 15:26 -18.98884 -48.51767 9510 ft 283 kts 115°
2026-04-21 15:27 -18.99729 -48.49890 9137 ft 282 kts 115°
2026-04-21 15:27 -19.00571 -48.48020 8761 ft 280 kts 115°
2026-04-21 15:27 -19.01406 -48.46166 8397 ft 278 kts 115°
2026-04-21 15:27 -19.02231 -48.44367 8037 ft 268 kts 115°
2026-04-21 15:28 -19.03010 -48.42663 7663 ft 240 kts 115°
2026-04-21 15:28 -19.03695 -48.41147 7279 ft 221 kts 113°
2026-04-21 15:28 -19.04113 -48.39609 6887 ft 218 kts 94°
2026-04-21 15:28 -19.04159 -48.38015 6517 ft 217 kts 90°
2026-04-21 15:29 -19.04185 -48.36413 6123 ft 218 kts 89°
2026-04-21 15:29 -19.04179 -48.34816 5753 ft 218 kts 88°
2026-04-21 15:29 -19.04177 -48.33249 5374 ft 205 kts 88°
2026-04-21 15:29 -19.04177 -48.31802 4964 ft 191 kts 89°
2026-04-21 15:30 -19.04171 -48.30413 4550 ft 187 kts 88°
2026-04-21 15:30 -19.04094 -48.29072 4116 ft 182 kts 72°
2026-04-21 15:30 -19.03337 -48.28096 4020 ft 173 kts 25°
2026-04-21 15:30 -19.02163 -48.27938 4023 ft 170 kts 355°
2026-04-21 15:31 -19.00967 -48.27916 4020 ft 178 kts
2026-04-21 15:31 -18.99754 -48.27578 4018 ft 185 kts 19°
2026-04-21 15:31 -18.98545 -48.27077 4028 ft 188 kts 20°
2026-04-21 15:31 -18.97321 -48.26555 4164 ft 191 kts 21°
2026-04-21 15:32 -18.96100 -48.26004 4162 ft 191 kts 22°
2026-04-21 15:32 -18.94882 -48.25466 4160 ft 189 kts 22°
2026-04-21 15:32 -18.93687 -48.24951 4162 ft 174 kts 23°
2026-04-21 15:32 -18.92711 -48.24498 4137 ft 137 kts 24°
2026-04-21 15:33 -18.91858 -48.24129 3869 ft 126 kts 21°
2026-04-21 15:33 -18.91091 -48.23796 3597 ft 114 kts 25°
2026-04-21 15:33 -18.90381 -48.23490 3354 ft 101 kts 26°
2026-04-21 15:33 -18.89780 -48.23226 3274 ft 89 kts 27°
2026-04-21 15:34 -18.89207 -48.22965 3152 ft 88 kts 26°
2026-04-21 15:34 -18.88720 -48.22749 3103 ft 53 kts 23°
2026-04-21 15:34 -18.88579 -48.22693 3103 ft 5 kts 46°
2026-04-21 15:34 -18.88609 -48.22694 3103 ft 11 kts 209°
2026-04-21 15:35 -18.88718 -48.22750 3102 ft 14 kts 200°
2026-04-21 15:35 -18.88782 -48.22808 3101 ft 11 kts 288°
2026-04-21 15:35 -18.88800 -48.22878 3101 ft 10 kts 241°
2026-04-21 15:35 -18.88803 -48.22906 3101 ft 3 kts 298°
2026-04-21 15:36 -18.88784 -48.22948 3101 ft 9 kts 291°
2026-04-21 15:36 -18.88804 -48.22988 3101 ft 1 kts 202°
2026-04-21 15:36 -18.88806 -48.22989 3101 ft 0 kts 202°